User: anonymous   Login
Location: Churchill Northern Studies Centre
(58.7378°N, 93.8201°W)
Time: 02:36:33
(UTC-05:00)
Language:

Hubble Space Telescope - Orbit

View from above orbital plane
View from above orbital plane
View from above satellite
View from above satellite

Ground track
Ground track

The orbit data is extracted from the following two-line orbital elements,

1 20580U 90037B   17290.39260990  .00000738  00000-0  34512-4 0  9998
2 20580  28.4697 279.9519 0002895  51.9667  66.4827 15.08889044308767
Epoch (UTC): 17 October 2017 09:25:21
Eccentricity: 0.0002895
inclination: 28.4697°
perigee height: 537 km
apogee height: 541 km
right ascension of ascending node: 279.9519°
argument of perigee: 51.9667°
revolutions per day: 15.08889044
mean anomaly at epoch: 66.4827°
orbit number at epoch: 30876

The dashed part of the orbit path shows where the satellite is in the earth's shadow,  

DLR